Retour au catalogue

STARLINK-31346

ActifCommunicationsVLEO
NORAD 58943·PAYLOAD·🇺🇸 United States

Lancé Feb 10, 2024 depuis Vandenberg Space Force Base

Loading…

Prochains Passages (prochaines 24 heures)

TLE

FraisSource: CelesTrak SupGP

Époque: Sep 14, 2026, 22:26 UTC

1 58943C 24027N   26257.93520833 -.00071872  00000+0 -21231-2 0  2573
2 58943  53.1578 147.4597 0001234  91.9909  35.7074 15.34431549    10

Suivez STARLINK-31346 en temps réel avec AllMySat

Download on the App Store